Regional Weather Roundup
Issued by NWS Northern Indiana

Home | Current Version | Previous Version | Graphics & Text | Print | Product List | Glossary On
Versions: 1 2 3 4 5 6 7 8 9 10 11 12 13 14 15 16 17 18 19 20 21 22 23 24 25 26 27 28 29 30 31 32 33 34 35 36 37 38 39 40 41 42 43 44 45 46 47 48 49 50
000
ASUS43 KIWX 281800
RWRIWX

KIWX WEATHER ROUNDUP
NATIONAL WEATHER SERVICE NORTHERN INDIANA
100 PM EST WED JAN 28 2015

NOTE: "FAIR" INDICATES FEW OR NO CLOUDS BELOW 12,000 FEET WITH NO
SIGNIFICANT WEATHER AND/OR OBSTRUCTIONS TO VISIBILITY.

* THESE STATIONS ARE NOT UNDER NWS QUALITY CONTROL. THEY ALSO MAY NOT
  REPORT WEATHER SUCH AS PRECIPITATION OR FOG.

INZ001>027-281900-
NORTHERN INDIANA

CITY           SKY/WX    TMP DP  RH WIND       PRES   REMARKS
GARY*          PTSUNNY   34  12  40 S14       30.24  WCI  24
SOUTH BEND     FAIR      30  14  51 S12       30.27F WCI  20
6HR MIN TEMP:  16; 6HR MAX TEMP:  30;

ELKHART*       SUNNY     28   5  37 S12       30.27F WCI  18
GOSHEN         PTSUNNY   28   9  44 SE13      30.27F WCI  17
6HR MIN TEMP:  10; 6HR MAX TEMP:  28;

ANGOLA*        SUNNY     25   9  50 S12       30.29F WCI  14
FORT WAYNE     PTSUNNY   24  14  65 SE9       30.31F WCI  14
6HR MIN TEMP:   7; 6HR MAX TEMP:  24;

PERU/GRISSOM   SUNNY     28  19  69 SE10      30.27F WCI  19
6HR MIN TEMP:   8; 6HR MAX TEMP:  28;


$$
INZ028>050-281900-
CENTRAL INDIANA

CITY           SKY/WX    TMP DP  RH WIND       PRES   REMARKS
LAFAYETTE      MOSUNNY   32  18  56 S12       30.26F WCI  23
6HR MIN TEMP:  15; 6HR MAX TEMP:  33;

KOKOMO*        SUNNY     28  18  64 S14       30.28F WCI  17
6HR MIN TEMP:   9; 6HR MAX TEMP:  28;

MUNCIE*        MOSUNNY   28  14  55 S13       30.28F WCI  17
6HR MIN TEMP:   7; 6HR MAX TEMP:  28;

INDIANAPOLIS   PTSUNNY   29  15  56 SE12      30.28F WCI  19
6HR MIN TEMP:  15; 6HR MAX TEMP:  29;


$$
MIZ043>046-050>051-056>058-064>065-071>073-077>080-281900-
SOUTHWEST LOWER MICHIGAN

CITY           SKY/WX    TMP DP  RH WIND       PRES   REMARKS
BATTLE CREEK   FAIR      29   8  41 S13       30.26F WCI  19
6HR MIN TEMP:  11; 6HR MAX TEMP:  29;

BENTON HARBOR  MOSUNNY   30  11  45 S9        30.25F WCI  22
6HR MIN TEMP:  13; 6HR MAX TEMP:  30;

COLDWATER*     SUNNY     27   9  46 S9        30.27F WCI  17
6HR MIN TEMP:   6; 6HR MAX TEMP:  27;

HILLSDALE*     SUNNY     26   9  48 S8        30.27F WCI  18
6HR MIN TEMP:   6; 6HR MAX TEMP:  26;

HOLLAND        MOSUNNY   30  10  43 S8        30.26F WCI  22
6HR MIN TEMP:  13; 6HR MAX TEMP:  31;

GRAND RAPIDS   PTSUNNY   28  11  48 S12       30.26F WCI  18
6HR MIN TEMP:  10; 6HR MAX TEMP:  29;

KALAMAZOO      PTSUNNY   28  10  46 S8        30.27F WCI  20
6HR MIN TEMP:   8; 6HR MAX TEMP:  28;

STURGIS*       PTSUNNY   27  10  50 SE10      30.26F WCI  17
THREE RIVERS*  FAIR      28  11  49 S9        30.28F WCI  19
6HR MIN TEMP:   9; 6HR MAX TEMP:  28;


$$
OHZ001>008-015>018-024>025-281900-
NORTHWEST OHIO

CITY           SKY/WX    TMP DP  RH WIND       PRES   REMARKS
DEFIANCE       SUNNY     24  11  57 S6        30.34F WCI  17
6HR MIN TEMP:   2; 6HR MAX TEMP:  24;

FINDLAY        SUNNY     22  13  68 S8        30.33F WCI  12
6HR MIN TEMP:   1; 6HR MAX TEMP:  22;

TOLEDO EXPRESS SUNNY     25  14  63 VRB3      30.33F
6HR MIN TEMP:   4; 6HR MAX TEMP:  25;

TOLEDO METCALF SUNNY     24  13  62 S7        30.35F WCI  16
6HR MIN TEMP:   7; 6HR MAX TEMP:  24;

LIMA           SUNNY     23  13  65 S8        30.31F WCI  14
6HR MIN TEMP:   0; 6HR MAX TEMP:  23;


$$
AND FOR LAKE MICHIGAN COASTAL AND OPEN LAKE BUOY OBSERVATIONS

STATION/POSITION TEMP    WIND        PRES    VSBY  WAVE
                 AIR SEA DIR/SP/G                  HT/PER
                 (F)     (DEG/KT/KT) (MB)    (MI)  (FT/S)
CALUMET HARBOR    30     170/ 13/ 17   N/A
MICHIGAN CITY     28     140/ 11/ 16   N/A
SAINT JOSEPH      29     160/  5/ 12 1025.4S
SAINT JOSEPH CG                      1027.0      6   0

$$
&&



USA.gov is the U.S. government's official web portal to all federal, state and local government web resources and services.